Regional Weather Roundup
Issued by NWS Boston, MA

Current Version | Previous Version | Text Only | Print | Product List | Glossary Off
Versions: 1 2 3 4 5 6 7 8 9 10 11 12 13 14 15 16 17 18 19 20 21 22 23 24 25 26 27

000
ASUS41 KBOX 230310
RWRBOX

REGIONAL WEATHER ROUNDUP
NATIONAL WEATHER SERVICE TAUNTON MA
1100 PM EDT MON MAY 22 2017

NOTE:  "FAIR" INDICATES FEW OR NO CLOUDS BELOW 12,000 FEET WITH NO
SIGNIFICANT WEATHER AND/OR OBSTRUCTIONS TO VISIBILITY.

MAZALL-230400-
EASTERN MASSACHUSETTS

CITY           SKY/WX    TMP DP  RH WIND       PRES   REMARKS
BOSTON         LGT RAIN  53  52  96 N8        29.99F FOG
BEVERLY        LGT RAIN  53  52  96 N3        29.99F FOG
LAWRENCE       CLOUDY    53  51  93 N6        30.01F FOG
BEDFORD        CLOUDY    52  49  89 N5        29.98F FOG
BLUE HILL        N/A     53  52  96 S3        29.97F
NORWOOD        LGT RAIN  55  54  96 NW3       29.98S FOG
MARSHFIELD     CLOUDY    55  55 100 SE5       29.96F FOG
PLYMOUTH       LGT RAIN  57  55  93 VRB6      29.97F FOG
TAUNTON        LGT RAIN  57  55  93 CALM      29.96F
NEW BEDFORD    LGT RAIN  56  55  97 S8        29.97F FOG
$$

MAZALL-230400-
CAPE COD AND THE ISLANDS

CITY           SKY/WX    TMP DP  RH WIND       PRES   REMARKS
FALMOUTH         N/A     55  55 100 MISG      29.99  FOG
HYANNIS        LGT RAIN  56  55  97 S10G17    29.97F FOG
CHATHAM        LGT RAIN  53  52  96 S9G17     30.00F
PROVINCETOWN   CLOUDY    54  53  97 S13       29.99F
NANTUCKET      CLOUDY    54  51  90 SE20      30.00F
MARTHAS VNYRD  RAIN      56  53  90 S14       29.98F FOG
$$

MAZALL-230400-
CENTRAL AND WESTERN MASSACHUSETTS

CITY           SKY/WX    TMP DP  RH WIND       PRES   REMARKS
WORCESTER      LGT RAIN  50  48  93 N3        29.98F FOG
FITCHBURG      CLOUDY    53  51  93 N3        30.00F FOG
ORANGE         CLOUDY    51  51 100 CALM      29.99S
SPRINGFIELD    CLOUDY    54  52  94 NE3       29.96F
WESTFIELD      CLOUDY    53  53 100 N6        29.98F
NORTH ADAMS    CLOUDY    53  51  93 CALM      29.97F
PITTSFIELD     CLOUDY    52  50  93 CALM      29.97S
$$

RIZALL-230400-
RHODE ISLAND

CITY           SKY/WX    TMP DP  RH WIND       PRES   REMARKS
PROVIDENCE     LGT RAIN  57  57 100 S8        29.97F
NEWPORT        LGT RAIN  56  56 100 S12       29.96F FOG
BLOCK ISLAND   LGT RAIN  56  56 100 S12       29.96F FOG
SMITHFIELD     LGT RAIN  55  55 100 CALM      29.97F FOG
WESTERLY       RAIN      57  56  96 SW3       29.96F FOG
$$

CTZALL-230400-
CONNECTICUT

CITY           SKY/WX    TMP DP  RH WIND       PRES   REMARKS
BRADLEY INTL   CLOUDY    53  53 100 N5        29.98S FOG
HARTFORD       CLOUDY    55  54  96 N6        29.97F FOG
BRIDGEPORT     FOG       59  57  93 N5        29.96S VSB 1/2
DANBURY        FOG       54  54 100 CALM      29.98S VSB 1/2
GROTON         CLOUDY    57  55  93 CALM      29.94F
NEW HAVEN      CLOUDY    57  56  96 N3        29.96S FOG
CHESTER        FOG       55  55 100 CALM      29.96S VSB 1/4
MERIDEN        CLOUDY    55  54  96 N3        29.97S
WILLIMANTIC    CLOUDY    57  55  93 CALM      29.97F FOG
OXFORD           N/A     55  52  88 CALM      29.98F VSB<1/4
$$

MEZ002-015-021-024-NHZ003-005-008-011-012-014-VTZ005-008-230400-
NORTHERN NEW ENGLAND

CITY           SKY/WX    TMP DP  RH WIND       PRES   REMARKS
PORTLAND ME    LGT RAIN  49  48  97 S9        30.02F FOG
BANGOR ME      CLOUDY    46  45  96 S6        30.02F
CONCORD NH     CLOUDY    50  48  93 CALM      30.00F
MANCHESTER NH  CLOUDY    51  48  89 CALM      29.98F FOG
NASHUA NH      LGT RAIN  51  51 100 CALM      30.00F FOG
PORTSMOUTH NH  DRIZZLE   50  50  98 E6        29.99F FOG
JAFFREY NH     CLOUDY    49  49 100 CALM      29.99F FOG
KEENE NH       CLOUDY    51  50  96 CALM      29.99S
BURLINGTON VT  CLOUDY    57  53  86 S9        29.94S
MT. WASHINGTON FOG       39  39 100 W32G43      N/A  VSB 0   WCI  27
$$

NYZ052-076-230400-
EASTERN NEW YORK

CITY           SKY/WX    TMP DP  RH WIND       PRES   REMARKS
ALBANY         CLOUDY    57  53  86 SW7       29.98S
NEW YORK CITY  CLOUDY    61  59  93 NW7       29.95F
$$

ANZALL-230400-
MARINE OBSERVATIONS

STATION/POSITION TIME  TEMP    WIND        PRES    VSBY  WAVE
                       AIR SEA DIR/SP/G                  HT/PER
                 (UTC) (F)     (DEG/KT/KT) (MB)    (MI)  (FT/S)
BOSTON BUOY      0250   54 54  150/  8/ 10 1014.3F         2/ 4
BUZZARDS BAY     0200   54     150/ 21/ 22 1015.3F
NANTUCKET SOUND  0250      55              1014.8F         3/ 3
MASS BAY-STELLWA 0204   53 53  170/ 10/ 12 1015.1F         3/ 4
ISLE OF SHOALS   0200   50     140/  8/  9 1016.3F
S OF BLOCK IS    0255      53                N/A           4/ 5
$$

......................KEY.........................
  SKY/WX - SKY CONDITION/PRESENT WEATHER
  TMP    - TEMPERATURE IN FAHRENHEIT
  DWPT   - DEWPOINT IN FAHRENHEIT
  RH     - RELATIVE HUMIDITY IN PERCENT
  WIND   - DIRECTION AND SPEED IN MPH
  PRES   - MEAN SEA LEVEL PRESSURE IN INCHES OF HG
  WCI    - WIND CHILL INDEX
  VSB    - VISIBILITY IN MILES
  HX     - HEAT INDEX
  TC     - TEMPERATURE IN CELSIUS
  VRB    - VARIABLE WIND DIRECTION
  N/A    - NOT AVAILABLE




USA.gov is the U.S. government's official web portal to all federal, state and local government web resources and services.